Home   Weather   Burbank   Past weeks

Flag for USA Past Weather in Burbank, California, USA — Yesterday and Last 2 Weeks

Now
58 °F

Clear.


Feels Like: 58 °F
Forecast: 57 / 77 °F
Wind: No wind

Location: Bob Hope Airport

Current Time: Apr 24, 2017 at 2:45:13 am

Latest Report: Apr 24, 2017 at 1:53 am


Visibility: 10 mi

Pressure: 29.83 "Hg

Humidity: 72%

Dew Point: 49 °F

Location of BurbankLocation

Past Weather in Burbank — Graph

°F

Burbank Temperature Yesterday

Maximum temperature yesterday: 78 °F (at 1:53 pm)
Minimum temperature yesterday: 59 °F (at 10:53 pm)
Average temperature yesterday: 68 °F

High & Low Weather Summary for the Past Weeks

 TemperatureHumidityPressure
High92 °F (Apr 21, 2:53 pm)90% (Apr 18, 10:53 pm)30.12 "Hg (Apr 18, 10:53 pm)
Low48 °F (Apr 9, 4:53 am)8% (Apr 21, 2:53 pm)29.77 "Hg (Apr 23, 4:53 pm)
Average65 °F46%29.96 "Hg
* Reported Apr 9 12:53 am — Apr 24 12:53 am, Burbank, Weather by CustomWeather, © 2017

Note: Actual official high and low records may vary slightly from our data, if they occured in-between our weather recording intervals... More about our weather records

Advertising

Burbank Weather History for the Previous 24 Hours

Scroll right to see more
 ConditionsComfort  
Time TempWeatherWind HumidityBarometerVisibility
12:53 am
Mon, Apr 24
60 °FClear.6 mph67%29.83 "Hg10 mi
11:53 pm
Sun, Apr 23
60 °FClear.9 mph67%29.84 "Hg10 mi
10:53 pm59 °FClear.6 mph67%29.84 "Hg10 mi
9:53 pm61 °FClear.9 mph62%29.83 "Hg10 mi
8:53 pm63 °FClear.10 mph60%29.81 "Hg10 mi
7:53 pm67 °FClear.10 mph51%29.78 "Hg10 mi
6:53 pm70 °FSunny.10 mph46%29.78 "Hg10 mi
5:53 pm73 °FSunny.12 mph41%29.78 "Hg10 mi
4:53 pm75 °FSunny.12 mph37%29.77 "Hg10 mi
3:53 pm76 °FSunny.12 mph36%29.78 "Hg10 mi
2:53 pm77 °FSunny.10 mph37%29.80 "Hg10 mi
1:53 pm78 °FSunny.12 mph37%29.80 "Hg10 mi
12:53 pm77 °FSunny.8 mph32%29.81 "Hg10 mi
11:53 am76 °FSunny.7 mph36%29.83 "Hg10 mi
10:53 am73 °FSunny.6 mph41%29.83 "Hg10 mi
9:53 am69 °FSunny.3 mph49%29.85 "Hg10 mi
8:53 am64 °FSunny.No wind61%29.85 "Hg10 mi
7:53 am62 °FSunny.3 mph65%29.84 "Hg10 mi
6:53 am60 °FSunny.8 mph72%29.81 "Hg10 mi
5:53 am61 °FClear.5 mph70%29.78 "Hg10 mi
4:53 am63 °FClear.5 mph63%29.78 "Hg10 mi
3:53 am63 °FClear.8 mph65%29.79 "Hg10 mi
2:53 am65 °FClear.8 mph52%29.79 "Hg10 mi
Weather by CustomWeather, © 2017

See weather overviewHow to use our weather pages